﻿_id,datum,uhrzeit_start,uhrzeit_ende,zaehlstelle,richtung_1,richtung_2,gesamt
1,2021.12.01,00:00,00:15,Arnulf,1,0,1
2,2021.12.01,00:15,00:30,Arnulf,0,0,0
3,2021.12.01,00:30,00:45,Arnulf,0,0,0
4,2021.12.01,00:45,01:00,Arnulf,0,0,0
5,2021.12.01,01:00,01:15,Arnulf,0,0,0
6,2021.12.01,01:15,01:30,Arnulf,0,0,0
7,2021.12.01,01:30,01:45,Arnulf,0,0,0
8,2021.12.01,01:45,02:00,Arnulf,0,0,0
9,2021.12.01,02:00,02:15,Arnulf,0,0,0
10,2021.12.01,02:15,02:30,Arnulf,0,0,0
11,2021.12.01,02:30,02:45,Arnulf,0,0,0
12,2021.12.01,02:45,03:00,Arnulf,0,0,0
13,2021.12.01,03:00,03:15,Arnulf,1,0,1
14,2021.12.01,03:15,03:30,Arnulf,0,0,0
15,2021.12.01,03:30,03:45,Arnulf,0,0,0
16,2021.12.01,03:45,04:00,Arnulf,0,0,0
17,2021.12.01,04:00,04:15,Arnulf,0,0,0
18,2021.12.01,04:15,04:30,Arnulf,1,0,1
19,2021.12.01,04:30,04:45,Arnulf,0,0,0
20,2021.12.01,04:45,05:00,Arnulf,0,0,0
21,2021.12.01,05:00,05:15,Arnulf,1,0,1
22,2021.12.01,05:15,05:30,Arnulf,2,0,2
23,2021.12.01,05:30,05:45,Arnulf,4,0,4
24,2021.12.01,05:45,06:00,Arnulf,4,0,4
25,2021.12.01,06:00,06:15,Arnulf,3,0,3
26,2021.12.01,06:15,06:30,Arnulf,2,0,2
27,2021.12.01,06:30,06:45,Arnulf,3,0,3
28,2021.12.01,06:45,07:00,Arnulf,10,0,10
29,2021.12.01,07:00,07:15,Arnulf,10,0,10
30,2021.12.01,07:15,07:30,Arnulf,14,0,14
31,2021.12.01,07:30,07:45,Arnulf,14,0,14
32,2021.12.01,07:45,08:00,Arnulf,34,0,34
33,2021.12.01,08:00,08:15,Arnulf,26,0,26
34,2021.12.01,08:15,08:30,Arnulf,31,0,31
35,2021.12.01,08:30,08:45,Arnulf,22,0,22
36,2021.12.01,08:45,09:00,Arnulf,23,0,23
37,2021.12.01,09:00,09:15,Arnulf,17,0,17
38,2021.12.01,09:15,09:30,Arnulf,25,0,25
39,2021.12.01,09:30,09:45,Arnulf,16,0,16
40,2021.12.01,09:45,10:00,Arnulf,11,0,11
41,2021.12.01,10:00,10:15,Arnulf,17,0,17
42,2021.12.01,10:15,10:30,Arnulf,12,0,12
43,2021.12.01,10:30,10:45,Arnulf,18,0,18
44,2021.12.01,10:45,11:00,Arnulf,22,0,22
45,2021.12.01,11:00,11:15,Arnulf,10,0,10
46,2021.12.01,11:15,11:30,Arnulf,12,0,12
47,2021.12.01,11:30,11:45,Arnulf,12,0,12
48,2021.12.01,11:45,12:00,Arnulf,17,0,17
49,2021.12.01,12:00,12:15,Arnulf,15,0,15
50,2021.12.01,12:15,12:30,Arnulf,17,0,17
51,2021.12.01,12:30,12:45,Arnulf,18,0,18
52,2021.12.01,12:45,13:00,Arnulf,16,0,16
53,2021.12.01,13:00,13:15,Arnulf,19,0,19
54,2021.12.01,13:15,13:30,Arnulf,16,0,16
55,2021.12.01,13:30,13:45,Arnulf,13,0,13
56,2021.12.01,13:45,14:00,Arnulf,17,0,17
57,2021.12.01,14:00,14:15,Arnulf,10,0,10
58,2021.12.01,14:15,14:30,Arnulf,18,0,18
59,2021.12.01,14:30,14:45,Arnulf,12,0,12
60,2021.12.01,14:45,15:00,Arnulf,12,0,12
61,2021.12.01,15:00,15:15,Arnulf,6,0,6
62,2021.12.01,15:15,15:30,Arnulf,10,0,10
63,2021.12.01,15:30,15:45,Arnulf,15,0,15
64,2021.12.01,15:45,16:00,Arnulf,19,0,19
65,2021.12.01,16:00,16:15,Arnulf,14,0,14
66,2021.12.01,16:15,16:30,Arnulf,22,0,22
67,2021.12.01,16:30,16:45,Arnulf,17,0,17
68,2021.12.01,16:45,17:00,Arnulf,13,0,13
69,2021.12.01,17:00,17:15,Arnulf,20,0,20
70,2021.12.01,17:15,17:30,Arnulf,22,0,22
71,2021.12.01,17:30,17:45,Arnulf,24,0,24
72,2021.12.01,17:45,18:00,Arnulf,16,0,16
73,2021.12.01,18:00,18:15,Arnulf,22,0,22
74,2021.12.01,18:15,18:30,Arnulf,15,0,15
75,2021.12.01,18:30,18:45,Arnulf,15,0,15
76,2021.12.01,18:45,19:00,Arnulf,9,0,9
77,2021.12.01,19:00,19:15,Arnulf,10,0,10
78,2021.12.01,19:15,19:30,Arnulf,6,0,6
79,2021.12.01,19:30,19:45,Arnulf,11,0,11
80,2021.12.01,19:45,20:00,Arnulf,8,0,8
81,2021.12.01,20:00,20:15,Arnulf,6,0,6
82,2021.12.01,20:15,20:30,Arnulf,5,0,5
83,2021.12.01,20:30,20:45,Arnulf,7,0,7
84,2021.12.01,20:45,21:00,Arnulf,2,0,2
85,2021.12.01,21:00,21:15,Arnulf,2,0,2
86,2021.12.01,21:15,21:30,Arnulf,3,0,3
87,2021.12.01,21:30,21:45,Arnulf,5,0,5
88,2021.12.01,21:45,22:00,Arnulf,7,0,7
89,2021.12.01,22:00,22:15,Arnulf,4,0,4
90,2021.12.01,22:15,22:30,Arnulf,4,0,4
91,2021.12.01,22:30,22:45,Arnulf,1,0,1
92,2021.12.01,22:45,23:00,Arnulf,0,0,0
93,2021.12.01,23:00,23:15,Arnulf,0,0,0
94,2021.12.01,23:15,23:30,Arnulf,2,0,2
95,2021.12.01,23:30,23:45,Arnulf,1,0,1
96,2021.12.01,23:45,00:00,Arnulf,0,0,0
97,2021.12.02,00:00,00:15,Arnulf,0,0,0
98,2021.12.02,00:15,00:30,Arnulf,0,0,0
99,2021.12.02,00:30,00:45,Arnulf,1,0,1
100,2021.12.02,00:45,01:00,Arnulf,0,0,0
101,2021.12.02,01:00,01:15,Arnulf,0,0,0
102,2021.12.02,01:15,01:30,Arnulf,0,0,0
103,2021.12.02,01:30,01:45,Arnulf,1,0,1
104,2021.12.02,01:45,02:00,Arnulf,0,0,0
105,2021.12.02,02:00,02:15,Arnulf,0,0,0
106,2021.12.02,02:15,02:30,Arnulf,0,0,0
107,2021.12.02,02:30,02:45,Arnulf,1,0,1
108,2021.12.02,02:45,03:00,Arnulf,0,0,0
109,2021.12.02,03:00,03:15,Arnulf,0,0,0
110,2021.12.02,03:15,03:30,Arnulf,0,0,0
111,2021.12.02,03:30,03:45,Arnulf,1,0,1
112,2021.12.02,03:45,04:00,Arnulf,0,0,0
113,2021.12.02,04:00,04:15,Arnulf,0,0,0
114,2021.12.02,04:15,04:30,Arnulf,0,0,0
115,2021.12.02,04:30,04:45,Arnulf,1,0,1
116,2021.12.02,04:45,05:00,Arnulf,0,0,0
117,2021.12.02,05:00,05:15,Arnulf,1,0,1
118,2021.12.02,05:15,05:30,Arnulf,2,0,2
119,2021.12.02,05:30,05:45,Arnulf,4,0,4
120,2021.12.02,05:45,06:00,Arnulf,3,0,3
121,2021.12.02,06:00,06:15,Arnulf,2,0,2
122,2021.12.02,06:15,06:30,Arnulf,2,0,2
123,2021.12.02,06:30,06:45,Arnulf,7,0,7
124,2021.12.02,06:45,07:00,Arnulf,8,0,8
125,2021.12.02,07:00,07:15,Arnulf,9,0,9
126,2021.12.02,07:15,07:30,Arnulf,20,0,20
127,2021.12.02,07:30,07:45,Arnulf,27,0,27
128,2021.12.02,07:45,08:00,Arnulf,20,0,20
129,2021.12.02,08:00,08:15,Arnulf,23,0,23
130,2021.12.02,08:15,08:30,Arnulf,31,0,31
131,2021.12.02,08:30,08:45,Arnulf,21,0,21
132,2021.12.02,08:45,09:00,Arnulf,28,0,28
133,2021.12.02,09:00,09:15,Arnulf,20,0,20
134,2021.12.02,09:15,09:30,Arnulf,13,0,13
135,2021.12.02,09:30,09:45,Arnulf,13,0,13
136,2021.12.02,09:45,10:00,Arnulf,4,0,4
137,2021.12.02,10:00,10:15,Arnulf,11,0,11
138,2021.12.02,10:15,10:30,Arnulf,12,0,12
139,2021.12.02,10:30,10:45,Arnulf,14,0,14
140,2021.12.02,10:45,11:00,Arnulf,15,0,15
141,2021.12.02,11:00,11:15,Arnulf,9,0,9
142,2021.12.02,11:15,11:30,Arnulf,12,0,12
143,2021.12.02,11:30,11:45,Arnulf,13,0,13
144,2021.12.02,11:45,12:00,Arnulf,13,0,13
145,2021.12.02,12:00,12:15,Arnulf,19,0,19
146,2021.12.02,12:15,12:30,Arnulf,8,0,8
147,2021.12.02,12:30,12:45,Arnulf,16,0,16
148,2021.12.02,12:45,13:00,Arnulf,15,0,15
149,2021.12.02,13:00,13:15,Arnulf,14,0,14
150,2021.12.02,13:15,13:30,Arnulf,7,0,7
151,2021.12.02,13:30,13:45,Arnulf,10,0,10
152,2021.12.02,13:45,14:00,Arnulf,8,0,8
153,2021.12.02,14:00,14:15,Arnulf,19,0,19
154,2021.12.02,14:15,14:30,Arnulf,9,0,9
155,2021.12.02,14:30,14:45,Arnulf,10,0,10
156,2021.12.02,14:45,15:00,Arnulf,14,0,14
157,2021.12.02,15:00,15:15,Arnulf,13,0,13
158,2021.12.02,15:15,15:30,Arnulf,12,0,12
159,2021.12.02,15:30,15:45,Arnulf,9,0,9
160,2021.12.02,15:45,16:00,Arnulf,17,0,17
161,2021.12.02,16:00,16:15,Arnulf,9,0,9
162,2021.12.02,16:15,16:30,Arnulf,22,0,22
163,2021.12.02,16:30,16:45,Arnulf,11,0,11
164,2021.12.02,16:45,17:00,Arnulf,13,0,13
165,2021.12.02,17:00,17:15,Arnulf,13,0,13
166,2021.12.02,17:15,17:30,Arnulf,17,0,17
167,2021.12.02,17:30,17:45,Arnulf,15,0,15
168,2021.12.02,17:45,18:00,Arnulf,20,0,20
169,2021.12.02,18:00,18:15,Arnulf,10,0,10
170,2021.12.02,18:15,18:30,Arnulf,15,0,15
171,2021.12.02,18:30,18:45,Arnulf,15,0,15
172,2021.12.02,18:45,19:00,Arnulf,15,0,15
173,2021.12.02,19:00,19:15,Arnulf,9,0,9
174,2021.12.02,19:15,19:30,Arnulf,13,0,13
175,2021.12.02,19:30,19:45,Arnulf,9,0,9
176,2021.12.02,19:45,20:00,Arnulf,12,0,12
177,2021.12.02,20:00,20:15,Arnulf,11,0,11
178,2021.12.02,20:15,20:30,Arnulf,11,0,11
179,2021.12.02,20:30,20:45,Arnulf,6,0,6
180,2021.12.02,20:45,21:00,Arnulf,8,0,8
181,2021.12.02,21:00,21:15,Arnulf,1,0,1
182,2021.12.02,21:15,21:30,Arnulf,3,0,3
183,2021.12.02,21:30,21:45,Arnulf,1,0,1
184,2021.12.02,21:45,22:00,Arnulf,1,0,1
185,2021.12.02,22:00,22:15,Arnulf,2,0,2
186,2021.12.02,22:15,22:30,Arnulf,3,0,3
187,2021.12.02,22:30,22:45,Arnulf,3,0,3
188,2021.12.02,22:45,23:00,Arnulf,0,0,0
189,2021.12.02,23:00,23:15,Arnulf,0,0,0
190,2021.12.02,23:15,23:30,Arnulf,2,0,2
191,2021.12.02,23:30,23:45,Arnulf,0,0,0
192,2021.12.02,23:45,00:00,Arnulf,1,0,1
193,2021.12.03,00:00,00:15,Arnulf,3,0,3
194,2021.12.03,00:15,00:30,Arnulf,2,0,2
195,2021.12.03,00:30,00:45,Arnulf,1,0,1
196,2021.12.03,00:45,01:00,Arnulf,0,0,0
197,2021.12.03,01:00,01:15,Arnulf,0,0,0
198,2021.12.03,01:15,01:30,Arnulf,0,0,0
199,2021.12.03,01:30,01:45,Arnulf,0,0,0
200,2021.12.03,01:45,02:00,Arnulf,0,0,0
201,2021.12.03,02:00,02:15,Arnulf,0,0,0
202,2021.12.03,02:15,02:30,Arnulf,0,0,0
203,2021.12.03,02:30,02:45,Arnulf,0,0,0
204,2021.12.03,02:45,03:00,Arnulf,0,0,0
205,2021.12.03,03:00,03:15,Arnulf,0,0,0
206,2021.12.03,03:15,03:30,Arnulf,0,0,0
207,2021.12.03,03:30,03:45,Arnulf,0,0,0
208,2021.12.03,03:45,04:00,Arnulf,0,0,0
209,2021.12.03,04:00,04:15,Arnulf,0,0,0
210,2021.12.03,04:15,04:30,Arnulf,0,0,0
211,2021.12.03,04:30,04:45,Arnulf,0,0,0
212,2021.12.03,04:45,05:00,Arnulf,0,0,0
213,2021.12.03,05:00,05:15,Arnulf,2,0,2
214,2021.12.03,05:15,05:30,Arnulf,4,0,4
215,2021.12.03,05:30,05:45,Arnulf,3,0,3
216,2021.12.03,05:45,06:00,Arnulf,1,0,1
217,2021.12.03,06:00,06:15,Arnulf,4,0,4
218,2021.12.03,06:15,06:30,Arnulf,1,0,1
219,2021.12.03,06:30,06:45,Arnulf,4,0,4
220,2021.12.03,06:45,07:00,Arnulf,4,0,4
221,2021.12.03,07:00,07:15,Arnulf,4,0,4
222,2021.12.03,07:15,07:30,Arnulf,14,0,14
223,2021.12.03,07:30,07:45,Arnulf,8,0,8
224,2021.12.03,07:45,08:00,Arnulf,15,0,15
225,2021.12.03,08:00,08:15,Arnulf,19,0,19
226,2021.12.03,08:15,08:30,Arnulf,22,0,22
227,2021.12.03,08:30,08:45,Arnulf,17,0,17
228,2021.12.03,08:45,09:00,Arnulf,25,0,25
229,2021.12.03,09:00,09:15,Arnulf,16,0,16
230,2021.12.03,09:15,09:30,Arnulf,14,0,14
231,2021.12.03,09:30,09:45,Arnulf,8,0,8
232,2021.12.03,09:45,10:00,Arnulf,12,0,12
233,2021.12.03,10:00,10:15,Arnulf,10,0,10
234,2021.12.03,10:15,10:30,Arnulf,8,0,8
235,2021.12.03,10:30,10:45,Arnulf,13,0,13
236,2021.12.03,10:45,11:00,Arnulf,8,0,8
237,2021.12.03,11:00,11:15,Arnulf,7,0,7
238,2021.12.03,11:15,11:30,Arnulf,9,0,9
239,2021.12.03,11:30,11:45,Arnulf,12,0,12
240,2021.12.03,11:45,12:00,Arnulf,15,0,15
241,2021.12.03,12:00,12:15,Arnulf,9,0,9
242,2021.12.03,12:15,12:30,Arnulf,13,0,13
243,2021.12.03,12:30,12:45,Arnulf,10,0,10
244,2021.12.03,12:45,13:00,Arnulf,13,0,13
245,2021.12.03,13:00,13:15,Arnulf,17,0,17
246,2021.12.03,13:15,13:30,Arnulf,9,0,9
247,2021.12.03,13:30,13:45,Arnulf,10,0,10
248,2021.12.03,13:45,14:00,Arnulf,12,0,12
249,2021.12.03,14:00,14:15,Arnulf,21,0,21
250,2021.12.03,14:15,14:30,Arnulf,8,0,8
251,2021.12.03,14:30,14:45,Arnulf,16,0,16
252,2021.12.03,14:45,15:00,Arnulf,9,0,9
253,2021.12.03,15:00,15:15,Arnulf,9,0,9
254,2021.12.03,15:15,15:30,Arnulf,12,0,12
255,2021.12.03,15:30,15:45,Arnulf,15,0,15
256,2021.12.03,15:45,16:00,Arnulf,12,0,12
257,2021.12.03,16:00,16:15,Arnulf,18,0,18
258,2021.12.03,16:15,16:30,Arnulf,19,0,19
259,2021.12.03,16:30,16:45,Arnulf,15,0,15
260,2021.12.03,16:45,17:00,Arnulf,22,0,22
261,2021.12.03,17:00,17:15,Arnulf,12,0,12
262,2021.12.03,17:15,17:30,Arnulf,20,0,20
263,2021.12.03,17:30,17:45,Arnulf,13,0,13
264,2021.12.03,17:45,18:00,Arnulf,11,0,11
265,2021.12.03,18:00,18:15,Arnulf,12,0,12
266,2021.12.03,18:15,18:30,Arnulf,17,0,17
267,2021.12.03,18:30,18:45,Arnulf,19,0,19
268,2021.12.03,18:45,19:00,Arnulf,12,0,12
269,2021.12.03,19:00,19:15,Arnulf,11,0,11
270,2021.12.03,19:15,19:30,Arnulf,8,0,8
271,2021.12.03,19:30,19:45,Arnulf,7,0,7
272,2021.12.03,19:45,20:00,Arnulf,8,0,8
273,2021.12.03,20:00,20:15,Arnulf,9,0,9
274,2021.12.03,20:15,20:30,Arnulf,8,0,8
275,2021.12.03,20:30,20:45,Arnulf,5,0,5
276,2021.12.03,20:45,21:00,Arnulf,5,0,5
277,2021.12.03,21:00,21:15,Arnulf,2,0,2
278,2021.12.03,21:15,21:30,Arnulf,3,0,3
279,2021.12.03,21:30,21:45,Arnulf,3,0,3
280,2021.12.03,21:45,22:00,Arnulf,5,0,5
281,2021.12.03,22:00,22:15,Arnulf,1,0,1
282,2021.12.03,22:15,22:30,Arnulf,2,0,2
283,2021.12.03,22:30,22:45,Arnulf,3,0,3
284,2021.12.03,22:45,23:00,Arnulf,5,0,5
285,2021.12.03,23:00,23:15,Arnulf,1,0,1
286,2021.12.03,23:15,23:30,Arnulf,1,0,1
287,2021.12.03,23:30,23:45,Arnulf,3,0,3
288,2021.12.03,23:45,00:00,Arnulf,2,0,2
289,2021.12.04,00:00,00:15,Arnulf,2,0,2
290,2021.12.04,00:15,00:30,Arnulf,1,0,1
291,2021.12.04,00:30,00:45,Arnulf,1,0,1
292,2021.12.04,00:45,01:00,Arnulf,0,0,0
293,2021.12.04,01:00,01:15,Arnulf,4,0,4
294,2021.12.04,01:15,01:30,Arnulf,0,0,0
295,2021.12.04,01:30,01:45,Arnulf,2,0,2
296,2021.12.04,01:45,02:00,Arnulf,0,0,0
297,2021.12.04,02:00,02:15,Arnulf,0,0,0
298,2021.12.04,02:15,02:30,Arnulf,2,0,2
299,2021.12.04,02:30,02:45,Arnulf,0,0,0
300,2021.12.04,02:45,03:00,Arnulf,1,0,1
301,2021.12.04,03:00,03:15,Arnulf,2,0,2
302,2021.12.04,03:15,03:30,Arnulf,0,0,0
303,2021.12.04,03:30,03:45,Arnulf,0,0,0
304,2021.12.04,03:45,04:00,Arnulf,0,0,0
305,2021.12.04,04:00,04:15,Arnulf,0,0,0
306,2021.12.04,04:15,04:30,Arnulf,0,0,0
307,2021.12.04,04:30,04:45,Arnulf,1,0,1
308,2021.12.04,04:45,05:00,Arnulf,0,0,0
309,2021.12.04,05:00,05:15,Arnulf,2,0,2
310,2021.12.04,05:15,05:30,Arnulf,2,0,2
311,2021.12.04,05:30,05:45,Arnulf,1,0,1
312,2021.12.04,05:45,06:00,Arnulf,0,0,0
313,2021.12.04,06:00,06:15,Arnulf,1,0,1
314,2021.12.04,06:15,06:30,Arnulf,0,0,0
315,2021.12.04,06:30,06:45,Arnulf,2,0,2
316,2021.12.04,06:45,07:00,Arnulf,2,0,2
317,2021.12.04,07:00,07:15,Arnulf,1,0,1
318,2021.12.04,07:15,07:30,Arnulf,2,0,2
319,2021.12.04,07:30,07:45,Arnulf,2,0,2
320,2021.12.04,07:45,08:00,Arnulf,1,0,1
321,2021.12.04,08:00,08:15,Arnulf,1,0,1
322,2021.12.04,08:15,08:30,Arnulf,2,0,2
323,2021.12.04,08:30,08:45,Arnulf,1,0,1
324,2021.12.04,08:45,09:00,Arnulf,3,0,3
325,2021.12.04,09:00,09:15,Arnulf,3,0,3
326,2021.12.04,09:15,09:30,Arnulf,5,0,5
327,2021.12.04,09:30,09:45,Arnulf,6,0,6
328,2021.12.04,09:45,10:00,Arnulf,7,0,7
329,2021.12.04,10:00,10:15,Arnulf,5,0,5
330,2021.12.04,10:15,10:30,Arnulf,9,0,9
331,2021.12.04,10:30,10:45,Arnulf,10,0,10
332,2021.12.04,10:45,11:00,Arnulf,7,0,7
333,2021.12.04,11:00,11:15,Arnulf,4,0,4
334,2021.12.04,11:15,11:30,Arnulf,5,0,5
335,2021.12.04,11:30,11:45,Arnulf,6,0,6
336,2021.12.04,11:45,12:00,Arnulf,8,0,8
337,2021.12.04,12:00,12:15,Arnulf,11,0,11
338,2021.12.04,12:15,12:30,Arnulf,8,0,8
339,2021.12.04,12:30,12:45,Arnulf,7,0,7
340,2021.12.04,12:45,13:00,Arnulf,8,0,8
341,2021.12.04,13:00,13:15,Arnulf,4,0,4
342,2021.12.04,13:15,13:30,Arnulf,9,0,9
343,2021.12.04,13:30,13:45,Arnulf,10,0,10
344,2021.12.04,13:45,14:00,Arnulf,12,0,12
345,2021.12.04,14:00,14:15,Arnulf,7,0,7
346,2021.12.04,14:15,14:30,Arnulf,7,0,7
347,2021.12.04,14:30,14:45,Arnulf,6,0,6
348,2021.12.04,14:45,15:00,Arnulf,14,0,14
349,2021.12.04,15:00,15:15,Arnulf,6,0,6
350,2021.12.04,15:15,15:30,Arnulf,10,0,10
351,2021.12.04,15:30,15:45,Arnulf,11,0,11
352,2021.12.04,15:45,16:00,Arnulf,7,0,7
353,2021.12.04,16:00,16:15,Arnulf,6,0,6
354,2021.12.04,16:15,16:30,Arnulf,5,0,5
355,2021.12.04,16:30,16:45,Arnulf,4,0,4
356,2021.12.04,16:45,17:00,Arnulf,2,0,2
357,2021.12.04,17:00,17:15,Arnulf,4,0,4
358,2021.12.04,17:15,17:30,Arnulf,3,0,3
359,2021.12.04,17:30,17:45,Arnulf,5,0,5
360,2021.12.04,17:45,18:00,Arnulf,3,0,3
361,2021.12.04,18:00,18:15,Arnulf,3,0,3
362,2021.12.04,18:15,18:30,Arnulf,5,0,5
363,2021.12.04,18:30,18:45,Arnulf,5,0,5
364,2021.12.04,18:45,19:00,Arnulf,2,0,2
365,2021.12.04,19:00,19:15,Arnulf,5,0,5
366,2021.12.04,19:15,19:30,Arnulf,3,0,3
367,2021.12.04,19:30,19:45,Arnulf,5,0,5
368,2021.12.04,19:45,20:00,Arnulf,3,0,3
369,2021.12.04,20:00,20:15,Arnulf,0,0,0
370,2021.12.04,20:15,20:30,Arnulf,0,0,0
371,2021.12.04,20:30,20:45,Arnulf,0,0,0
372,2021.12.04,20:45,21:00,Arnulf,4,0,4
373,2021.12.04,21:00,21:15,Arnulf,0,0,0
374,2021.12.04,21:15,21:30,Arnulf,3,0,3
375,2021.12.04,21:30,21:45,Arnulf,3,0,3
376,2021.12.04,21:45,22:00,Arnulf,2,0,2
377,2021.12.04,22:00,22:15,Arnulf,2,0,2
378,2021.12.04,22:15,22:30,Arnulf,2,0,2
379,2021.12.04,22:30,22:45,Arnulf,0,0,0
380,2021.12.04,22:45,23:00,Arnulf,2,0,2
381,2021.12.04,23:00,23:15,Arnulf,1,0,1
382,2021.12.04,23:15,23:30,Arnulf,1,0,1
383,2021.12.04,23:30,23:45,Arnulf,1,0,1
384,2021.12.04,23:45,00:00,Arnulf,0,0,0
385,2021.12.05,00:00,00:15,Arnulf,2,0,2
386,2021.12.05,00:15,00:30,Arnulf,0,0,0
387,2021.12.05,00:30,00:45,Arnulf,1,0,1
388,2021.12.05,00:45,01:00,Arnulf,0,0,0
389,2021.12.05,01:00,01:15,Arnulf,3,0,3
390,2021.12.05,01:15,01:30,Arnulf,2,0,2
391,2021.12.05,01:30,01:45,Arnulf,1,0,1
392,2021.12.05,01:45,02:00,Arnulf,0,0,0
393,2021.12.05,02:00,02:15,Arnulf,0,0,0
394,2021.12.05,02:15,02:30,Arnulf,0,0,0
395,2021.12.05,02:30,02:45,Arnulf,0,0,0
396,2021.12.05,02:45,03:00,Arnulf,2,0,2
397,2021.12.05,03:00,03:15,Arnulf,0,0,0
398,2021.12.05,03:15,03:30,Arnulf,0,0,0
399,2021.12.05,03:30,03:45,Arnulf,1,0,1
400,2021.12.05,03:45,04:00,Arnulf,0,0,0
401,2021.12.05,04:00,04:15,Arnulf,0,0,0
402,2021.12.05,04:15,04:30,Arnulf,0,0,0
403,2021.12.05,04:30,04:45,Arnulf,1,0,1
404,2021.12.05,04:45,05:00,Arnulf,0,0,0
405,2021.12.05,05:00,05:15,Arnulf,1,0,1
406,2021.12.05,05:15,05:30,Arnulf,0,0,0
407,2021.12.05,05:30,05:45,Arnulf,0,0,0
408,2021.12.05,05:45,06:00,Arnulf,0,0,0
409,2021.12.05,06:00,06:15,Arnulf,1,0,1
410,2021.12.05,06:15,06:30,Arnulf,1,0,1
411,2021.12.05,06:30,06:45,Arnulf,2,0,2
412,2021.12.05,06:45,07:00,Arnulf,1,0,1
413,2021.12.05,07:00,07:15,Arnulf,0,0,0
414,2021.12.05,07:15,07:30,Arnulf,0,0,0
415,2021.12.05,07:30,07:45,Arnulf,0,0,0
416,2021.12.05,07:45,08:00,Arnulf,0,0,0
417,2021.12.05,08:00,08:15,Arnulf,0,0,0
418,2021.12.05,08:15,08:30,Arnulf,0,0,0
419,2021.12.05,08:30,08:45,Arnulf,2,0,2
420,2021.12.05,08:45,09:00,Arnulf,2,0,2
421,2021.12.05,09:00,09:15,Arnulf,1,0,1
422,2021.12.05,09:15,09:30,Arnulf,7,0,7
423,2021.12.05,09:30,09:45,Arnulf,5,0,5
424,2021.12.05,09:45,10:00,Arnulf,10,0,10
425,2021.12.05,10:00,10:15,Arnulf,5,0,5
426,2021.12.05,10:15,10:30,Arnulf,2,0,2
427,2021.12.05,10:30,10:45,Arnulf,4,0,4
428,2021.12.05,10:45,11:00,Arnulf,4,0,4
429,2021.12.05,11:00,11:15,Arnulf,5,0,5
430,2021.12.05,11:15,11:30,Arnulf,14,0,14
431,2021.12.05,11:30,11:45,Arnulf,5,0,5
432,2021.12.05,11:45,12:00,Arnulf,9,0,9
433,2021.12.05,12:00,12:15,Arnulf,10,0,10
434,2021.12.05,12:15,12:30,Arnulf,12,0,12
435,2021.12.05,12:30,12:45,Arnulf,8,0,8
436,2021.12.05,12:45,13:00,Arnulf,6,0,6
437,2021.12.05,13:00,13:15,Arnulf,12,0,12
438,2021.12.05,13:15,13:30,Arnulf,5,0,5
439,2021.12.05,13:30,13:45,Arnulf,4,0,4
440,2021.12.05,13:45,14:00,Arnulf,8,0,8
441,2021.12.05,14:00,14:15,Arnulf,14,0,14
442,2021.12.05,14:15,14:30,Arnulf,12,0,12
443,2021.12.05,14:30,14:45,Arnulf,15,0,15
444,2021.12.05,14:45,15:00,Arnulf,10,0,10
445,2021.12.05,15:00,15:15,Arnulf,8,0,8
446,2021.12.05,15:15,15:30,Arnulf,4,0,4
447,2021.12.05,15:30,15:45,Arnulf,12,0,12
448,2021.12.05,15:45,16:00,Arnulf,10,0,10
449,2021.12.05,16:00,16:15,Arnulf,10,0,10
450,2021.12.05,16:15,16:30,Arnulf,11,0,11
451,2021.12.05,16:30,16:45,Arnulf,5,0,5
452,2021.12.05,16:45,17:00,Arnulf,6,0,6
453,2021.12.05,17:00,17:15,Arnulf,12,0,12
454,2021.12.05,17:15,17:30,Arnulf,7,0,7
455,2021.12.05,17:30,17:45,Arnulf,3,0,3
456,2021.12.05,17:45,18:00,Arnulf,6,0,6
457,2021.12.05,18:00,18:15,Arnulf,3,0,3
458,2021.12.05,18:15,18:30,Arnulf,10,0,10
459,2021.12.05,18:30,18:45,Arnulf,6,0,6
460,2021.12.05,18:45,19:00,Arnulf,0,0,0
461,2021.12.05,19:00,19:15,Arnulf,2,0,2
462,2021.12.05,19:15,19:30,Arnulf,4,0,4
463,2021.12.05,19:30,19:45,Arnulf,5,0,5
464,2021.12.05,19:45,20:00,Arnulf,4,0,4
465,2021.12.05,20:00,20:15,Arnulf,2,0,2
466,2021.12.05,20:15,20:30,Arnulf,6,0,6
467,2021.12.05,20:30,20:45,Arnulf,3,0,3
468,2021.12.05,20:45,21:00,Arnulf,2,0,2
469,2021.12.05,21:00,21:15,Arnulf,5,0,5
470,2021.12.05,21:15,21:30,Arnulf,3,0,3
471,2021.12.05,21:30,21:45,Arnulf,2,0,2
472,2021.12.05,21:45,22:00,Arnulf,0,0,0
473,2021.12.05,22:00,22:15,Arnulf,6,0,6
474,2021.12.05,22:15,22:30,Arnulf,0,0,0
475,2021.12.05,22:30,22:45,Arnulf,1,0,1
476,2021.12.05,22:45,23:00,Arnulf,0,0,0
477,2021.12.05,23:00,23:15,Arnulf,0,0,0
478,2021.12.05,23:15,23:30,Arnulf,0,0,0
479,2021.12.05,23:30,23:45,Arnulf,1,0,1
480,2021.12.05,23:45,00:00,Arnulf,2,0,2
481,2021.12.06,00:00,00:15,Arnulf,1,0,1
482,2021.12.06,00:15,00:30,Arnulf,0,0,0
483,2021.12.06,00:30,00:45,Arnulf,0,0,0
484,2021.12.06,00:45,01:00,Arnulf,0,0,0
485,2021.12.06,01:00,01:15,Arnulf,0,0,0
486,2021.12.06,01:15,01:30,Arnulf,0,0,0
487,2021.12.06,01:30,01:45,Arnulf,0,0,0
488,2021.12.06,01:45,02:00,Arnulf,0,0,0
489,2021.12.06,02:00,02:15,Arnulf,0,0,0
490,2021.12.06,02:15,02:30,Arnulf,0,0,0
491,2021.12.06,02:30,02:45,Arnulf,0,0,0
492,2021.12.06,02:45,03:00,Arnulf,0,0,0
493,2021.12.06,03:00,03:15,Arnulf,0,0,0
494,2021.12.06,03:15,03:30,Arnulf,0,0,0
495,2021.12.06,03:30,03:45,Arnulf,0,0,0
496,2021.12.06,03:45,04:00,Arnulf,0,0,0
497,2021.12.06,04:00,04:15,Arnulf,0,0,0
498,2021.12.06,04:15,04:30,Arnulf,0,0,0
499,2021.12.06,04:30,04:45,Arnulf,0,0,0
500,2021.12.06,04:45,05:00,Arnulf,0,0,0
501,2021.12.06,05:00,05:15,Arnulf,3,0,3
502,2021.12.06,05:15,05:30,Arnulf,2,0,2
503,2021.12.06,05:30,05:45,Arnulf,5,0,5
504,2021.12.06,05:45,06:00,Arnulf,3,0,3
505,2021.12.06,06:00,06:15,Arnulf,4,0,4
506,2021.12.06,06:15,06:30,Arnulf,4,0,4
507,2021.12.06,06:30,06:45,Arnulf,7,0,7
508,2021.12.06,06:45,07:00,Arnulf,8,0,8
509,2021.12.06,07:00,07:15,Arnulf,9,0,9
510,2021.12.06,07:15,07:30,Arnulf,15,0,15
511,2021.12.06,07:30,07:45,Arnulf,16,0,16
512,2021.12.06,07:45,08:00,Arnulf,31,0,31
513,2021.12.06,08:00,08:15,Arnulf,22,0,22
514,2021.12.06,08:15,08:30,Arnulf,28,0,28
515,2021.12.06,08:30,08:45,Arnulf,33,0,33
516,2021.12.06,08:45,09:00,Arnulf,32,0,32
517,2021.12.06,09:00,09:15,Arnulf,19,0,19
518,2021.12.06,09:15,09:30,Arnulf,17,0,17
519,2021.12.06,09:30,09:45,Arnulf,13,0,13
520,2021.12.06,09:45,10:00,Arnulf,9,0,9
521,2021.12.06,10:00,10:15,Arnulf,12,0,12
522,2021.12.06,10:15,10:30,Arnulf,11,0,11
523,2021.12.06,10:30,10:45,Arnulf,13,0,13
524,2021.12.06,10:45,11:00,Arnulf,8,0,8
525,2021.12.06,11:00,11:15,Arnulf,8,0,8
526,2021.12.06,11:15,11:30,Arnulf,11,0,11
527,2021.12.06,11:30,11:45,Arnulf,9,0,9
528,2021.12.06,11:45,12:00,Arnulf,14,0,14
529,2021.12.06,12:00,12:15,Arnulf,12,0,12
530,2021.12.06,12:15,12:30,Arnulf,15,0,15
531,2021.12.06,12:30,12:45,Arnulf,11,0,11
532,2021.12.06,12:45,13:00,Arnulf,14,0,14
533,2021.12.06,13:00,13:15,Arnulf,16,0,16
534,2021.12.06,13:15,13:30,Arnulf,13,0,13
535,2021.12.06,13:30,13:45,Arnulf,11,0,11
536,2021.12.06,13:45,14:00,Arnulf,12,0,12
537,2021.12.06,14:00,14:15,Arnulf,10,0,10
538,2021.12.06,14:15,14:30,Arnulf,9,0,9
539,2021.12.06,14:30,14:45,Arnulf,11,0,11
540,2021.12.06,14:45,15:00,Arnulf,13,0,13
541,2021.12.06,15:00,15:15,Arnulf,9,0,9
542,2021.12.06,15:15,15:30,Arnulf,11,0,11
543,2021.12.06,15:30,15:45,Arnulf,15,0,15
544,2021.12.06,15:45,16:00,Arnulf,18,0,18
545,2021.12.06,16:00,16:15,Arnulf,13,0,13
546,2021.12.06,16:15,16:30,Arnulf,20,0,20
547,2021.12.06,16:30,16:45,Arnulf,20,0,20
548,2021.12.06,16:45,17:00,Arnulf,20,0,20
549,2021.12.06,17:00,17:15,Arnulf,21,0,21
550,2021.12.06,17:15,17:30,Arnulf,28,0,28
551,2021.12.06,17:30,17:45,Arnulf,19,0,19
552,2021.12.06,17:45,18:00,Arnulf,17,0,17
553,2021.12.06,18:00,18:15,Arnulf,17,0,17
554,2021.12.06,18:15,18:30,Arnulf,21,0,21
555,2021.12.06,18:30,18:45,Arnulf,22,0,22
556,2021.12.06,18:45,19:00,Arnulf,13,0,13
557,2021.12.06,19:00,19:15,Arnulf,11,0,11
558,2021.12.06,19:15,19:30,Arnulf,5,0,5
559,2021.12.06,19:30,19:45,Arnulf,13,0,13
560,2021.12.06,19:45,20:00,Arnulf,8,0,8
561,2021.12.06,20:00,20:15,Arnulf,4,0,4
562,2021.12.06,20:15,20:30,Arnulf,0,0,0
563,2021.12.06,20:30,20:45,Arnulf,5,0,5
564,2021.12.06,20:45,21:00,Arnulf,4,0,4
565,2021.12.06,21:00,21:15,Arnulf,5,0,5
566,2021.12.06,21:15,21:30,Arnulf,5,0,5
567,2021.12.06,21:30,21:45,Arnulf,4,0,4
568,2021.12.06,21:45,22:00,Arnulf,1,0,1
569,2021.12.06,22:00,22:15,Arnulf,5,0,5
570,2021.12.06,22:15,22:30,Arnulf,7,0,7
571,2021.12.06,22:30,22:45,Arnulf,4,0,4
572,2021.12.06,22:45,23:00,Arnulf,2,0,2
573,2021.12.06,23:00,23:15,Arnulf,0,0,0
574,2021.12.06,23:15,23:30,Arnulf,0,0,0
575,2021.12.06,23:30,23:45,Arnulf,3,0,3
576,2021.12.06,23:45,00:00,Arnulf,1,0,1
577,2021.12.07,00:00,00:15,Arnulf,0,0,0
578,2021.12.07,00:15,00:30,Arnulf,0,0,0
579,2021.12.07,00:30,00:45,Arnulf,0,0,0
580,2021.12.07,00:45,01:00,Arnulf,0,0,0
581,2021.12.07,01:00,01:15,Arnulf,0,0,0
582,2021.12.07,01:15,01:30,Arnulf,0,0,0
583,2021.12.07,01:30,01:45,Arnulf,0,0,0
584,2021.12.07,01:45,02:00,Arnulf,0,0,0
585,2021.12.07,02:00,02:15,Arnulf,0,0,0
586,2021.12.07,02:15,02:30,Arnulf,1,0,1
587,2021.12.07,02:30,02:45,Arnulf,0,0,0
588,2021.12.07,02:45,03:00,Arnulf,2,0,2
589,2021.12.07,03:00,03:15,Arnulf,0,0,0
590,2021.12.07,03:15,03:30,Arnulf,0,0,0
591,2021.12.07,03:30,03:45,Arnulf,0,0,0